Visibility
0.1 4.3 12.3 0.4 0.1 15.0 1.5 0.3 0.4 0.3 1.4 3.6 0.2 0.1 0.0 0.8 10.3 13.1 5.7 14.7 14.6 6.2 15.0 15.0 15.0 14.7 15.0 15.0 15.0 15.0 15.0 15.0 15.0 5.5 3.5 6.4 9.0 9.3 15.0 15.0 15.0 15.0 15.0 15.0
0.1 0.2 14.9 15.0 4.7 14.8 14.8 0.3 3.4 15.0 14.9 14.9 1.6 0.1 0.0 10.6 10.4 15.0 3.8 13.6 14.9 15.0 7.6 13.0 12.6 12.2 15.0 15.0 15.0 13.0 15.0 15.0 15.0 5.5 3.0 3.4 9.8 6.7 15.0 15.0 15.0 15.0 15.0 15.0
0.2 10.6 14.2 6.5 0.1 0.1 0.4 0.1 0.1 0.1 0.1 0.5 7.1 0.0 0.1 0.3 12.6 10.9 15.0 10.5 10.6 1.8 5.7 13.7 1.3 12.6 13.2 15.0 11.8 15.0 15.0 15.0 15.0 6.0 2.6 6.8 10.3 14.0 12.7 15.0 15.0 15.0 15.0 15.0
15.0 15.0 0.3 0.1 0.1 0.1 0.1 0.2 0.1 0.3 0.1 0.1 0.1 0.0 0.0 0.8 0.1 0.1 12.3 15.0 12.7 6.8 14.8 14.2 13.0 15.0 15.0 8.2 15.0 15.0 15.0 15.0 15.0 8.1 7.9 6.7 5.8 11.9 12.4 15.0 15.0 15.0 15.0 15.0
15.0 6.2 0.9 5.2 0.1 0.1 0.0 0.1 0.1 0.1 0.1 0.1 0.9 13.9 0.3 3.9 0.0 0.0 0.1 4.5 11.1 14.7 8.0 8.6 14.3 12.1 5.6 15.0 6.7 13.3 10.1 13.5 15.0 4.4 9.5 5.0 5.0 6.3 11.9 15.0 15.0 15.0 15.0 15.0
15.0 3.8 0.1 0.1 0.3 10.0 1.2 1.1 0.3 0.1 0.1 0.1 1.2 0.9 0.2 0.2 0.0 0.0 4.3 15.0 14.7 15.0 15.0 15.0 15.0 15.0 15.0 6.4 14.5 4.2 5.6 15.0 15.0 6.9 6.3 14.7 1.4 5.6 14.7 15.0 15.0 15.0 15.0 15.0
15.0 2.0 0.1 0.1 15.0 15.0 3.5 0.1 0.1 0.2 0.1 0.1 0.1 0.0 0.1 0.1 0.1 0.0 3.4 3.8 15.0 15.0 15.0 15.0 15.0 15.0 15.0 15.0 15.0 3.9 0.3 4.1 7.9 12.7 15.0 6.0 2.5 6.1 9.5 15.0 15.0 15.0 15.0 15.0
14.5 12.5 0.2 9.2 14.0 4.6 7.1 10.9 3.8 12.4 2.3 0.9 0.4 0.5 0.2 0.3 0.1 0.1 0.1 1.2 8.3 15.0 12.8 3.1 15.0 15.0 15.0 4.9 15.0 13.6 7.6 4.6 7.4 3.0 6.3 2.2 5.2 4.2 15.0 14.6 12.4 15.0 15.0 15.0
1.9 0.2 11.0 13.4 1.4 15.0 14.5 15.0 15.0 15.0 15.0 7.5 3.0 1.9 0.7 0.8 0.6 1.5 0.1 0.1 2.6 2.5 14.9 3.5 11.6 15.0 3.6 5.1 15.0 15.0 0.2 0.2 1.6 5.8 4.8 5.1 1.7 7.9 15.0 15.0 13.4 14.9 15.0 15.0
12.3 13.8 3.4 15.0 15.0 15.0 15.0 15.0 15.0 15.0 15.0 15.0 15.0 15.0 15.0 5.7 5.4 3.3 1.8 1.6 0.6 0.4 0.4 5.4 5.1 2.8 8.5 15.0 12.7 6.6 3.5 0.7 1.9 4.7 5.9 4.3 3.7 6.2 9.0 15.0 10.2 14.3 10.2 15.0
15.0 15.0 15.0 15.0 15.0 15.0 15.0 15.0 15.0 15.0 15.0 15.0 15.0 15.0 15.0 15.0 15.0 15.0 14.0 14.4 15.0 10.6 0.7 0.5 2.7 2.8 14.4 6.4 4.5 4.6 3.2 3.3 2.8 0.2 0.7 3.9 5.3 3.1 8.0 7.3 5.6 5.0 6.3 9.7
10.6 15.0 15.0 15.0 15.0 15.0 15.0 15.0 15.0 15.0 15.0 15.0 15.0 15.0 15.0 15.0 15.0 15.0 15.0 15.0 15.0 15.0 15.0 15.0 14.2 12.0 12.0 5.7 4.0 4.3 2.9 3.7 2.8 2.0 0.2 0.4 0.1 0.1 0.1 0.1 0.1 0.1 0.3 4.2
15.0 15.0 15.0 15.0 15.0 15.0 15.0 15.0 15.0 15.0 15.0 15.0 15.0 15.0 15.0 15.0 15.0 15.0 15.0 15.0 15.0 15.0 15.0 15.0 15.0 15.0 15.0 14.9 15.0 14.6 6.4 5.6 3.5 3.1 3.7 0.3 0.2 0.5 0.2 0.1 0.1 0.1 0.1 0.1
15.0 15.0 15.0 15.0 15.0 15.0 15.0 15.0 15.0 15.0 15.0 15.0 15.0 15.0 15.0 15.0 15.0 15.0 15.0 15.0 15.0 15.0 15.0 15.0 15.0 15.0 15.0 15.0 15.0 15.0 15.0 14.2 5.4 5.0 10.0 6.3 2.7 0.7 0.5 0.6 0.2 0.1 0.1 0.1
15.0 15.0 15.0 15.0 15.0 15.0 15.0 15.0 15.0 15.0 15.0 15.0 15.0 15.0 15.0 15.0 15.0 15.0 15.0 15.0 15.0 15.0 15.0 15.0 15.0 15.0 15.0 15.0 15.0 15.0 15.0 15.0 15.0 13.7 12.1 5.7 5.7 6.7 5.6 3.3 2.5 0.5 4.4 2.0
15.0 15.0 15.0 15.0 15.0 15.0 15.0 15.0 15.0 15.0 15.0 15.0 15.0 15.0 15.0 15.0 15.0 15.0 15.0 15.0 15.0 12.7 15.0 15.0 15.0 15.0 15.0 15.0 15.0 15.0 15.0 15.0 15.0 15.0 15.0 15.0 8.7 10.4 11.6 12.1 11.2 9.9 4.1 0.2
15.0 15.0 15.0 15.0 15.0 15.0 15.0 15.0 15.0 15.0 15.0 15.0 15.0 15.0 15.0 15.0 15.0 15.0 15.0 15.0 15.0 15.0 15.0 15.0 15.0 15.0 15.0 15.0 15.0 15.0 15.0 15.0 15.0 15.0 15.0 15.0 15.0 15.0 15.0 14.6 3.7 14.6 1.7 6.4
15.0 15.0 15.0 15.0 15.0 15.0 15.0 15.0 15.0 15.0 15.0 15.0 15.0 15.0 15.0 15.0 15.0 15.0 15.0 15.0 15.0 15.0 15.0 15.0 15.0 15.0 15.0 15.0 15.0 15.0 15.0 15.0 15.0 15.0 15.0 15.0 15.0 15.0 9.7 1.1 0.7 0.1 0.4 13.7
15.0 15.0 15.0 15.0 15.0 15.0 15.0 15.0 15.0 15.0 15.0 15.0 15.0 15.0 15.0 15.0 15.0 15.0 15.0 15.0 15.0 15.0 14.9 15.0 15.0 15.0 15.0 15.0 15.0 15.0 15.0 15.0 15.0 15.0 15.0 15.0 15.0 15.0 10.4 3.0 0.1 0.1 0.3 0.2
15.0 15.0 15.0 15.0 15.0 15.0 15.0 15.0 15.0 15.0 15.0 15.0 15.0 15.0 15.0 15.0 15.0 15.0 15.0 7.9 7.1 11.2 15.0 15.0 15.0 15.0 15.0 15.0 15.0 11.9 15.0 15.0 15.0 15.0 14.6 15.0 15.0 15.0 6.8 6.1 3.0 1.7 0.1 0.1
15.0 15.0 15.0 15.0 15.0 15.0 15.0 15.0 15.0 15.0 15.0 15.0 15.0 7.2 15.0 15.0 15.0 15.0 15.0 15.0 13.1 15.0 15.0 15.0 15.0 15.0 15.0 15.0 15.0 14.9 15.0 15.0 15.0 8.0 4.8 3.2 2.5 12.8 14.2 4.3 1.7 0.9 1.2 1.2
15.0 15.0 15.0 15.0 15.0 15.0 15.0 15.0 15.0 15.0 15.0 0.3 0.3 0.4 12.5 15.0 15.0 15.0 15.0 14.3 15.0 15.0 15.0 15.0 15.0 15.0 15.0 15.0 15.0 15.0 15.0 15.0 15.0 5.2 4.2 5.4 3.5 1.6 1.4 2.0 0.9 1.0 0.4 0.3
15.0 15.0 15.0 15.0 15.0 15.0 15.0 15.0 15.0 15.0 4.8 0.1 0.1 15.0 15.0 15.0 15.0 15.0 15.0 15.0 15.0 15.0 15.0 15.0 15.0 15.0 15.0 15.0 15.0 14.3 3.2 10.8 10.1 8.4 4.6 2.3 1.7 1.3 1.4 1.3 1.1 1.5 1.6 1.4
15.0 15.0 15.0 15.0 15.0 15.0 15.0 15.0 15.0 15.0 15.0 15.0 15.0 15.0 15.0 15.0 15.0 15.0 15.0 15.0 15.0 15.0 15.0 15.0 15.0 15.0 15.0 15.0 13.0 1.7 2.2 13.9 6.9 4.6 5.2 6.7 2.7 1.3 1.2 1.2 2.8 2.2 2.1 1.8
15.0 15.0 15.0 15.0 15.0 15.0 15.0 15.0 15.0 15.0 15.0 15.0 15.0 15.0 15.0 15.0 15.0 15.0 15.0 15.0 15.0 15.0 15.0 15.0 15.0 14.1 15.0 14.9 6.6 13.3 7.9 3.4 1.9 0.8 0.9 1.2 0.8 1.1 1.6 1.2 0.6 0.4 0.7 0.8
15.0 15.0 15.0 15.0 15.0 15.0 15.0 15.0 15.0 15.0 15.0 15.0 15.0 15.0 15.0 15.0 15.0 15.0 15.0 15.0 15.0 15.0 15.0 14.6 8.5 4.5 9.6 14.6 9.3 13.0 11.2 3.1 2.1 1.4 0.4 0.5 0.5 1.2 0.6 0.4 0.4 0.3 0.3 0.2
15.0 15.0 15.0 15.0 15.0 15.0 15.0 15.0 15.0 15.0 15.0 15.0 15.0 15.0 15.0 15.0 15.0 15.0 15.0 15.0 15.0 15.0 15.0 9.1 9.2 0.5 2.6 3.2 7.7 15.0 15.0 15.0 0.3 1.7 0.9 0.4 0.3 0.3 0.4 0.4 0.6 0.7 0.4 0.4